TimeEDT,TemperatureF,Dew PointF,Humidity,Sea Level PressureIn,VisibilityMPH,Wind Direction,Wind SpeedMPH,Gust SpeedMPH,PrecipitationIn,Events,Conditions,WindDirDegrees,DateUTC
12:56 AM,66.9,60.1,79,30.22,10.0,WSW,6.9,-,N/A,,Clear,250,2013-08-26 04:56:00
1:56 AM,68.0,60.1,76,30.21,10.0,WSW,10.4,-,N/A,,Clear,240,2013-08-26 05:56:00
2:56 AM,68.0,61.0,78,30.19,10.0,SW,9.2,-,N/A,,Clear,230,2013-08-26 06:56:00
3:56 AM,68.0,62.1,81,30.17,10.0,SW,9.2,-,N/A,,Clear,230,2013-08-26 07:56:00
4:56 AM,68.0,63.0,84,30.15,10.0,SW,10.4,-,N/A,,Clear,230,2013-08-26 08:56:00
5:56 AM,69.1,63.0,81,30.15,10.0,SW,11.5,-,N/A,,Clear,230,2013-08-26 09:56:00
6:56 AM,69.1,64.0,84,30.14,10.0,SW,10.4,-,N/A,,Clear,220,2013-08-26 10:56:00
7:56 AM,71.1,62.1,73,30.11,10.0,SW,15.0,-,N/A,,Clear,230,2013-08-26 11:56:00
8:56 AM,72.0,61.0,68,30.12,10.0,WSW,19.6,25.3,N/A,,Scattered Clouds,240,2013-08-26 12:56:00
9:56 AM,73.0,63.0,71,30.09,10.0,SW,18.4,26.5,N/A,,Overcast,230,2013-08-26 13:56:00
10:56 AM,72.0,64.0,76,30.08,10.0,SW,12.7,-,N/A,,Overcast,230,2013-08-26 14:56:00
1:56 PM,75.9,64.0,67,30.00,10.0,SW,20.7,28.8,N/A,,Overcast,230,2013-08-26 17:56:00
2:56 PM,73.9,64.9,73,29.97,10.0,SW,20.7,27.6,N/A,,Partly Cloudy,230,2013-08-26 18:56:00
3:56 PM,73.0,64.9,76,29.95,10.0,SW,17.3,25.3,N/A,,Mostly Cloudy,230,2013-08-26 19:56:00
4:56 PM,73.0,64.9,76,29.94,10.0,SW,17.3,25.3,N/A,,Clear,230,2013-08-26 20:56:00
5:56 PM,71.1,64.9,81,29.94,10.0,WSW,13.8,21.9,N/A,,Overcast,240,2013-08-26 21:56:00
6:56 PM,71.1,64.9,81,29.93,10.0,SW,17.3,-,N/A,,Overcast,230,2013-08-26 22:56:00
7:56 PM,70.0,66.0,87,29.93,10.0,WSW,8.1,-,N/A,,Overcast,240,2013-08-26 23:56:00
8:56 PM,71.1,66.0,84,29.92,10.0,SW,11.5,-,N/A,,Overcast,230,2013-08-27 00:56:00
9:56 PM,71.1,66.0,84,29.91,10.0,WSW,12.7,-,N/A,,Mostly Cloudy,240,2013-08-27 01:56:00
10:56 PM,71.1,66.0,84,29.91,10.0,WSW,13.8,-,N/A,,Overcast,240,2013-08-27 02:56:00
11:56 PM,71.1,66.9,87,29.89,10.0,WSW,9.2,-,N/A,,Overcast,240,2013-08-27 03:56:00